QPF
0.00 0.00 0.00 0.00 0.00 0.00 0.00 0.00 0.00 0.00 0.00 0.00 0.00 0.00 0.00 0.00 0.00 0.00 0.00 0.00 0.00 0.00 0.00 0.00 0.00 0.00 0.00 0.00 0.00 0.00 0.00 0.00 0.00 0.00 0.00 0.00 0.00 0.00 0.00 0.00 0.00 0.00 0.00
0.00 0.00 0.00 0.00 0.00 0.00 0.00 0.00 0.00 0.00 0.00 0.00 0.00 0.00 0.00 0.00 0.00 0.00 0.00 0.00 0.00 0.00 0.00 0.00 0.00 0.00 0.00 0.00 0.00 0.00 0.00 0.00 0.00 0.00 0.00 0.00 0.00 0.00 0.00 0.00 0.00 0.00 0.00
0.00 0.00 0.00 0.00 0.00 0.00 0.00 0.00 0.00 0.00 0.00 0.00 0.00 0.00 0.00 0.00 0.00 0.00 0.00 0.00 0.00 0.00 0.00 0.00 0.00 0.00 0.00 0.00 0.00 0.00 0.00 0.00 0.00 0.00 0.00 0.00 0.00 0.00 0.00 0.00 0.00 0.00 0.00
0.00 0.00 0.00 0.00 0.00 0.00 0.00 0.00 0.00 0.00 0.00 0.00 0.00 0.00 0.00 0.00 0.00 0.00 0.00 0.00 0.00 0.00 0.00 0.00 0.00 0.00 0.00 0.00 0.00 0.00 0.00 0.00 0.00 0.00 0.00 0.00 0.00 0.00 0.00 0.00 0.00 0.00 0.00
0.00 0.00 0.00 0.00 0.00 0.00 0.00 0.00 0.00 0.00 0.00 0.00 0.00 0.00 0.00 0.00 0.00 0.00 0.00 0.00 0.00 0.00 0.00 0.00 0.00 0.00 0.00 0.00 0.00 0.00 0.00 0.00 0.00 0.00 0.00 0.00 0.00 0.00 0.00 0.00 0.00 0.00 0.00
0.00 0.00 0.00 0.00 0.00 0.00 0.00 0.00 0.00 0.00 0.00 0.00 0.00 0.00 0.00 0.00 0.00 0.00 0.00 0.00 0.00 0.00 0.00 0.00 0.00 0.00 0.00 0.00 0.00 0.00 0.00 0.00 0.00 0.00 0.00 0.00 0.00 0.00 0.00 0.00 0.00 0.00 0.00
0.00 0.00 0.00 0.00 0.00 0.00 0.00 0.00 0.00 0.00 0.00 0.00 0.00 0.00 0.00 0.00 0.00 0.00 0.00 0.00 0.00 0.00 0.00 0.00 0.00 0.00 0.00 0.00 0.00 0.00 0.00 0.00 0.00 0.00 0.00 0.00 0.00 0.00 0.00 0.00 0.00 0.00 0.00
0.00 0.00 0.00 0.00 0.00 0.00 0.00 0.00 0.00 0.00 0.00 0.00 0.00 0.00 0.00 0.00 0.00 0.00 0.00 0.00 0.00 0.00 0.00 0.00 0.00 0.00 0.00 0.00 0.00 0.00 0.00 0.00 0.00 0.00 0.00 0.00 0.00 0.00 0.00 0.00 0.00 0.00 0.00
0.00 0.00 0.00 0.00 0.00 0.00 0.00 0.00 0.00 0.00 0.00 0.00 0.00 0.00 0.00 0.00 0.00 0.00 0.00 0.00 0.00 0.00 0.00 0.00 0.00 0.00 0.00 0.00 0.00 0.00 0.00 0.00 0.00 0.00 0.00 0.00 0.00 0.00 0.00 0.00 0.00 0.00 0.00
0.00 0.00 0.00 0.00 0.00 0.00 0.00 0.00 0.00 0.00 0.00 0.00 0.00 0.00 0.00 0.00 0.00 0.00 0.00 0.00 0.00 0.00 0.00 0.00 0.00 0.00 0.00 0.00 0.00 0.00 0.00 0.00 0.00 0.00 0.00 0.00 0.00 0.00 0.00 0.00 0.00 0.00 0.00
0.00 0.00 0.00 0.00 0.00 0.00 0.00 0.00 0.00 0.00 0.00 0.00 0.00 0.00 0.00 0.00 0.00 0.00 0.00 0.00 0.00 0.00 0.00 0.00 0.00 0.00 0.00 0.00 0.00 0.00 0.00 0.00 0.00 0.00 0.00 0.00 0.00 0.00 0.00 0.00 0.00 0.00 0.00
0.00 0.00 0.00 0.00 0.00 0.00 0.00 0.00 0.00 0.00 0.00 0.00 0.00 0.00 0.00 0.00 0.00 0.00 0.00 0.00 0.00 0.00 0.00 0.00 0.00 0.00 0.00 0.00 0.00 0.00 0.00 0.00 0.00 0.00 0.00 0.00 0.00 0.00 0.00 0.00 0.00 0.00 0.00
0.00 0.00 0.00 0.00 0.00 0.00 0.00 0.00 0.00 0.00 0.00 0.00 0.00 0.00 0.00 0.00 0.00 0.00 0.00 0.00 0.00 0.00 0.00 0.00 0.00 0.00 0.00 0.00 0.00 0.00 0.00 0.00 0.00 0.00 0.00 0.00 0.00 0.00 0.00 0.00 0.00 0.00 0.00
0.00 0.00 0.00 0.00 0.00 0.00 0.00 0.00 0.00 0.00 0.00 0.00 0.00 0.00 0.00 0.00 0.00 0.00 0.00 0.00 0.00 0.00 0.00 0.00 0.00 0.00 0.00 0.00 0.00 0.00 0.00 0.00 0.00 0.00 0.00 0.00 0.00 0.00 0.00 0.00 0.00 0.00 0.00
0.00 0.00 0.00 0.00 0.00 0.00 0.00 0.00 0.00 0.00 0.00 0.00 0.00 0.00 0.00 0.00 0.00 0.00 0.00 0.00 0.00 0.00 0.00 0.00 0.00 0.00 0.00 0.00 0.00 0.00 0.00 0.00 0.00 0.00 0.00 0.00 0.00 0.00 0.00 0.00 0.00 0.00 0.00
0.00 0.00 0.00 0.00 0.00 0.00 0.00 0.00 0.00 0.00 0.00 0.00 0.00 0.00 0.00 0.00 0.00 0.00 0.00 0.00 0.00 0.00 0.00 0.00 0.00 0.00 0.00 0.00 0.00 0.00 0.00 0.00 0.00 0.00 0.00 0.00 0.00 0.00 0.00 0.00 0.00 0.00 0.00
0.00 0.00 0.00 0.00 0.00 0.00 0.00 0.00 0.00 0.00 0.00 0.00 0.00 0.00 0.00 0.00 0.00 0.01 0.00 0.00 0.01 0.01 0.00 0.00 0.00 0.00 0.00 0.00 0.00 0.00 0.00 0.00 0.00 0.00 0.00 0.00 0.00 0.00 0.00 0.00 0.00 0.00 0.00
0.00 0.00 0.00 0.00 0.00 0.00 0.00 0.00 0.00 0.00 0.00 0.00 0.00 0.00 0.00 0.00 0.01 0.01 0.00 0.01 0.01 0.01 0.00 0.00 0.00 0.00 0.00 0.00 0.00 0.00 0.00 0.00 0.00 0.00 0.00 0.00 0.00 0.00 0.00 0.00 0.00 0.00 0.00
0.00 0.00 0.00 0.00 0.00 0.00 0.00 0.00 0.00 0.00 0.00 0.00 0.00 0.00 0.00 0.00 0.01 0.01 0.01 0.00 0.00 0.00 0.00 0.00 0.00 0.00 0.00 0.00 0.00 0.00 0.00 0.00 0.00 0.00 0.00 0.00 0.00 0.00 0.00 0.00 0.00 0.00 0.00
0.00 0.00 0.00 0.00 0.00 0.00 0.00 0.00 0.00 0.00 0.00 0.00 0.00 0.00 0.00 0.00 0.01 0.01 0.01 0.00 0.00 0.00 0.00 0.00 0.00 0.00 0.00 0.00 0.00 0.00 0.00 0.00 0.00 0.00 0.00 0.00 0.00 0.00 0.00 0.00 0.00 0.00 0.00
0.00 0.00 0.00 0.00 0.00 0.00 0.00 0.00 0.00 0.00 0.00 0.00 0.00 0.00 0.00 0.01 0.00 0.00 0.00 0.00 0.00 0.00 0.00 0.00 0.00 0.00 0.00 0.00 0.00 0.00 0.00 0.00 0.00 0.00 0.00 0.00 0.00 0.00 0.00 0.00 0.00 0.00 0.00
0.00 0.00 0.00 0.00 0.00 0.00 0.00 0.00 0.00 0.00 0.00 0.00 0.00 0.00 0.00 0.01 0.00 0.00 0.00 0.00 0.00 0.00 0.00 0.00 0.00 0.00 0.00 0.00 0.00 0.00 0.00 0.00 0.00 0.00 0.00 0.00 0.00 0.00 0.00 0.00 0.00 0.00 0.00
0.00 0.00 0.00 0.00 0.00 0.00 0.00 0.00 0.00 0.00 0.00 0.00 0.00 0.00 0.00 0.00 0.00 0.00 0.00 0.00 0.00 0.00 0.00 0.00 0.00 0.00 0.00 0.00 0.00 0.00 0.00 0.00 0.00 0.00 0.00 0.00 0.00 0.00 0.00 0.00 0.00 0.00 0.00
0.00 0.00 0.00 0.00 0.00 0.00 0.00 0.00 0.00 0.00 0.00 0.00 0.00 0.00 0.00 0.00 0.00 0.00 0.00 0.00 0.00 0.00 0.00 0.00 0.00 0.00 0.00 0.00 0.00 0.00 0.00 0.00 0.00 0.00 0.00 0.00 0.00 0.00 0.00 0.00 0.00 0.00 0.00
0.00 0.00 0.00 0.00 0.00 0.00 0.00 0.00 0.00 0.00 0.00 0.00 0.00 0.00 0.00 0.00 0.00 0.00 0.00 0.00 0.00 0.00 0.00 0.00 0.00 0.00 0.00 0.00 0.00 0.00 0.00 0.00 0.00 0.00 0.00 0.00 0.00 0.00 0.00 0.00 0.00 0.00 0.00
0.00 0.00 0.00 0.00 0.00 0.00 0.00 0.00 0.00 0.00 0.00 0.00 0.00 0.00 0.00 0.00 0.00 0.00 0.00 0.00 0.00 0.00 0.00 0.00 0.00 0.00 0.00 0.00 0.00 0.00 0.00 0.00 0.00 0.00 0.00 0.00 0.00 0.00 0.00 0.00 0.00 0.00 0.00
MSLP
1014.44 1014.41 1013.99 1013.52 1012.98 1012.71 1011.95 1011.58 1011.62 1011.58 1011.18 1010.84 1010.92 1010.93 1011.04 1011.43 1012.08 1011.97 1012.04 1012.52 1012.53 1012.64 1013.01 1013.33 1013.71 1014.74 1014.98 1015.38 1015.67 1015.84 1016.25 1016.64 1017.49 1019.21 1019.46 1020.48 1021.49 1021.86 1022.59 1022.98 1023.15 1023.22 1022.97
1015.01 1014.84 1014.42 1013.78 1013.70 1013.09 1012.54 1012.11 1011.49 1011.31 1011.21 1011.05 1010.64 1010.60 1010.58 1010.50 1010.99 1011.39 1011.50 1011.53 1012.13 1012.21 1012.21 1013.01 1012.82 1013.68 1014.32 1014.79 1015.14 1015.17 1015.60 1015.93 1016.70 1018.21 1019.52 1020.17 1020.59 1021.23 1021.51 1022.23 1022.62 1022.85 1022.76
1015.23 1014.80 1014.49 1014.37 1014.00 1013.70 1013.01 1012.20 1011.72 1011.26 1011.11 1010.70 1010.66 1010.08 1010.04 1010.30 1010.05 1010.40 1010.63 1010.94 1011.01 1011.62 1011.72 1011.97 1012.17 1013.04 1013.67 1013.87 1014.51 1014.80 1015.23 1015.83 1015.91 1017.17 1018.53 1019.65 1020.32 1020.99 1021.46 1022.02 1022.32 1022.37 1022.25
1015.82 1015.36 1014.82 1014.32 1014.15 1013.89 1013.31 1012.97 1012.05 1011.69 1011.18 1010.58 1010.16 1009.87 1009.52 1009.41 1009.50 1009.70 1010.23 1010.29 1010.33 1010.47 1010.98 1011.12 1011.32 1011.66 1012.21 1013.19 1013.65 1014.63 1014.73 1015.81 1016.12 1016.27 1017.63 1018.79 1019.62 1020.42 1020.69 1020.84 1021.80 1022.07 1021.40
1015.82 1015.28 1015.07 1014.63 1014.28 1013.77 1013.44 1013.39 1012.85 1011.85 1011.14 1010.56 1010.06 1009.59 1009.18 1008.77 1008.85 1009.29 1009.41 1009.59 1009.78 1009.80 1009.72 1009.91 1010.06 1010.52 1010.74 1011.24 1012.34 1013.43 1014.49 1014.99 1016.07 1016.07 1016.87 1017.83 1018.44 1019.38 1019.72 1019.65 1020.21 1020.81 1020.88
1015.60 1015.21 1014.88 1014.90 1014.45 1013.97 1013.38 1013.00 1012.45 1011.67 1010.81 1010.18 1009.93 1009.50 1008.74 1008.22 1008.10 1008.34 1008.65 1008.49 1008.73 1008.67 1008.55 1008.87 1009.24 1009.12 1009.90 1009.64 1010.50 1011.13 1012.04 1013.09 1014.62 1015.08 1015.55 1016.22 1016.73 1017.57 1018.28 1018.88 1019.36 1019.97 1019.94
1015.97 1015.37 1015.04 1014.87 1014.49 1013.77 1013.27 1012.70 1012.04 1011.28 1010.51 1009.82 1009.20 1008.85 1008.37 1007.41 1007.29 1007.26 1007.61 1007.74 1007.52 1007.20 1007.21 1007.35 1007.82 1008.04 1009.13 1009.20 1009.83 1010.06 1011.01 1011.39 1011.79 1012.85 1013.31 1013.77 1015.23 1015.81 1016.93 1018.07 1018.61 1019.00 1019.49
1015.63 1015.30 1014.96 1014.57 1014.10 1013.74 1013.29 1012.91 1011.96 1011.25 1010.33 1009.47 1008.89 1008.06 1007.38 1006.94 1006.90 1006.61 1006.64 1006.66 1006.69 1006.19 1005.41 1005.89 1006.30 1006.82 1007.38 1008.08 1009.17 1009.68 1009.96 1010.73 1011.33 1012.38 1012.17 1012.57 1013.92 1015.17 1015.96 1016.77 1017.92 1018.70 1019.42
1015.30 1015.01 1014.63 1014.39 1014.06 1013.62 1012.91 1012.10 1011.29 1010.73 1009.65 1008.71 1007.96 1007.25 1006.43 1005.83 1006.09 1005.94 1005.76 1005.45 1005.13 1004.63 1004.46 1004.64 1005.21 1005.41 1006.18 1007.42 1007.76 1008.52 1009.06 1009.64 1010.71 1012.16 1012.35 1012.13 1013.80 1014.79 1015.46 1016.47 1017.81 1018.57 1019.34
1014.57 1014.27 1014.18 1014.21 1013.98 1013.50 1012.82 1012.01 1011.00 1010.22 1008.93 1007.78 1006.93 1006.39 1005.85 1005.18 1005.01 1004.70 1004.50 1004.26 1003.85 1003.27 1003.41 1003.71 1003.94 1004.03 1004.90 1005.95 1006.92 1007.71 1008.09 1008.33 1009.75 1011.44 1012.22 1012.33 1013.12 1014.56 1015.21 1015.81 1016.87 1017.80 1018.63
1014.12 1013.81 1013.54 1013.36 1013.13 1012.88 1012.22 1011.36 1010.54 1009.58 1008.57 1007.42 1006.43 1005.53 1005.12 1004.50 1003.85 1003.76 1003.25 1003.09 1002.78 1002.47 1002.11 1002.18 1003.07 1003.44 1004.14 1004.77 1006.00 1006.63 1006.30 1007.75 1008.97 1009.82 1011.13 1012.00 1012.53 1013.58 1014.51 1015.49 1016.14 1017.21 1018.09
1013.72 1013.38 1013.04 1012.79 1012.52 1011.98 1011.46 1010.64 1010.03 1009.29 1008.17 1006.70 1005.73 1004.32 1003.48 1002.84 1002.64 1002.36 1001.85 1001.51 1001.70 1001.56 1001.04 1001.12 1001.70 1002.39 1003.69 1004.07 1004.76 1006.14 1006.65 1007.53 1008.30 1008.75 1009.73 1011.11 1011.61 1012.77 1014.26 1014.89 1016.20 1016.67 1017.35
1013.40 1012.90 1012.66 1012.32 1011.80 1011.31 1010.63 1009.71 1009.06 1008.30 1007.31 1005.80 1004.73 1003.34 1002.05 1001.56 1001.15 1001.00 1000.87 1000.81 1000.82 1000.71 999.98 999.80 1000.61 1001.71 1002.69 1003.14 1003.63 1004.26 1005.81 1006.67 1006.90 1007.50 1008.47 1009.98 1010.64 1012.20 1013.49 1014.70 1016.05 1016.58 1017.39
1013.23 1012.53 1012.02 1011.47 1010.77 1010.36 1009.77 1008.92 1007.94 1006.94 1005.97 1004.93 1003.69 1002.29 1001.26 1000.69 1000.15 1000.05 1000.09 1000.01 999.89 999.67 998.68 999.22 1000.17 1001.39 1001.94 1002.45 1002.68 1002.88 1004.06 1004.90 1005.42 1006.47 1008.33 1009.43 1010.65 1012.18 1012.46 1014.46 1015.35 1016.38 1017.25
1013.31 1012.49 1011.77 1011.13 1010.34 1009.38 1008.66 1007.85 1006.94 1005.90 1005.32 1004.11 1002.85 1002.03 1000.83 999.51 998.96 999.04 999.13 999.00 998.82 998.52 998.75 999.17 999.51 1000.15 1000.58 1001.49 1001.00 1001.69 1004.03 1003.78 1004.82 1006.41 1007.78 1009.05 1010.51 1011.02 1012.67 1014.03 1014.80 1016.05 1016.67
1013.35 1012.51 1011.66 1010.79 1009.80 1008.78 1007.59 1006.25 1005.90 1004.77 1003.71 1002.62 1001.47 1000.78 999.50 998.48 997.82 997.68 997.66 997.82 997.85 997.81 998.10 998.12 998.51 998.87 998.90 1000.03 1000.59 1000.82 1002.85 1003.74 1004.64 1005.96 1007.28 1008.12 1009.65 1010.99 1012.12 1013.14 1014.36 1015.40 1016.02
1012.92 1011.96 1011.01 1010.15 1009.07 1007.97 1006.88 1005.67 1004.02 1003.35 1002.61 1001.31 1000.17 999.25 998.20 997.00 996.33 995.92 995.93 996.20 996.45 996.72 996.53 996.86 997.09 997.51 998.02 999.00 1000.21 1000.30 1001.87 1003.62 1004.46 1005.43 1006.56 1007.72 1009.11 1010.45 1011.63 1012.81 1013.97 1014.85 1015.30
1011.93 1010.93 1009.97 1008.94 1008.03 1007.04 1005.99 1004.85 1003.78 1002.60 1001.24 1000.14 999.54 998.60 997.05 995.65 994.84 994.60 994.54 994.95 995.11 995.08 994.96 995.98 996.26 996.90 997.43 998.55 1000.25 1001.25 1002.26 1003.37 1004.37 1005.42 1006.51 1007.53 1008.70 1009.94 1011.21 1012.42 1013.53 1014.22 1014.83
1010.69 1009.52 1008.57 1007.58 1006.66 1005.70 1004.75 1003.72 1002.60 1001.51 1000.49 999.26 998.47 997.40 996.27 995.02 994.09 993.73 993.44 993.17 993.78 993.99 994.02 995.11 995.82 996.27 997.26 998.67 999.98 1001.18 1002.14 1003.03 1004.07 1005.51 1006.61 1007.58 1008.65 1009.78 1011.17 1012.48 1013.39 1014.03 1014.54
1009.26 1008.18 1007.25 1006.21 1005.12 1004.14 1003.18 1002.19 1001.13 1000.19 999.36 998.34 997.31 996.17 995.18 994.06 993.55 992.93 991.95 992.12 992.90 993.36 993.59 994.40 995.47 996.68 997.60 998.96 1000.24 1001.45 1002.37 1003.27 1004.31 1005.51 1006.79 1007.98 1009.18 1010.19 1011.14 1012.29 1013.05 1013.49 1014.00
1008.27 1007.01 1005.99 1004.97 1003.83 1002.71 1001.60 1000.51 999.66 998.97 998.16 997.28 996.29 995.24 994.01 993.40 992.87 992.40 991.72 991.71 992.47 993.16 993.94 994.95 995.95 997.21 998.13 999.47 1000.67 1001.56 1002.65 1003.45 1004.77 1005.89 1007.13 1008.38 1009.28 1010.46 1011.26 1012.19 1012.45 1013.13 1013.66
1007.33 1006.22 1005.15 1003.97 1002.72 1001.41 1000.08 998.82 997.84 997.32 996.92 996.24 995.21 994.05 993.49 993.10 992.58 992.27 992.47 992.89 993.53 994.28 995.08 995.72 996.72 997.68 998.68 999.91 1000.81 1001.84 1002.97 1003.90 1005.08 1006.28 1007.53 1008.68 1009.59 1010.38 1011.35 1012.00 1012.32 1012.60 1012.99
1007.05 1005.95 1004.75 1003.51 1002.32 1001.02 999.64 998.48 997.52 996.63 996.02 995.43 995.03 994.55 994.18 994.05 994.01 993.92 994.23 994.58 995.06 995.61 996.43 996.98 997.81 998.92 999.92 1000.73 1001.58 1002.18 1003.01 1004.06 1005.12 1006.15 1007.30 1008.51 1009.48 1010.32 1010.97 1011.32 1011.90 1012.25 1012.29
1007.16 1006.06 1004.92 1003.75 1002.65 1001.53 1000.43 999.43 998.59 997.89 997.30 996.87 996.52 996.25 996.00 995.87 995.86 995.95 996.02 996.40 996.82 997.32 997.89 998.36 999.24 999.93 1000.83 1001.72 1002.35 1002.97 1003.78 1004.71 1005.57 1006.52 1007.46 1008.45 1009.17 1009.79 1010.85 1011.20 1011.46 1011.47 1011.54
1007.63 1006.56 1005.48 1004.46 1003.49 1002.54 1001.54 1000.67 999.92 999.24 998.73 998.32 998.04 997.81 997.65 997.55 997.58 997.62 997.76 998.12 998.47 998.86 999.44 1000.00 1000.62 1001.29 1001.89 1002.51 1003.29 1004.07 1004.63 1005.46 1006.35 1007.06 1007.90 1008.66 1009.17 1010.00 1010.33 1010.55 1010.83 1011.17 1011.18
1008.39 1007.48 1006.50 1005.46 1004.46 1003.64 1002.86 1002.13 1001.49 1000.86 1000.27 999.95 999.71 999.48 999.34 999.23 999.18 999.21 999.45 999.79 1000.08 1000.44 1000.90 1001.53 1002.18 1002.59 1002.97 1003.64 1004.32 1005.04 1005.51 1005.96 1006.94 1007.70 1008.31 1008.84 1009.20 1009.33 1009.76 1010.33 1010.57 1010.59 1010.29
Thickness
5511 5509 5512 5516 5521 5523 5530 5533 5530 5529 5532 5537 5537 5537 5537 5534 5528 5532 5533 5529 5531 5532 5531 5532 5532 5523 5522 5519 5516 5515 5510 5508 5505 5488 5489 5480 5474 5474 5470 5468 5468 5467 5470
5482 5486 5489 5494 5495 5500 5505 5508 5513 5514 5514 5515 5519 5519 5521 5523 5520 5517 5518 5521 5516 5518 5521 5515 5520 5514 5509 5506 5505 5505 5500 5496 5493 5480 5470 5467 5466 5462 5461 5457 5456 5454 5456
5459 5462 5465 5467 5471 5473 5479 5485 5489 5494 5495 5499 5498 5504 5504 5504 5508 5507 5508 5505 5508 5504 5505 5506 5506 5497 5493 5495 5492 5490 5487 5481 5482 5475 5462 5455 5451 5447 5446 5443 5441 5440 5443
5429 5432 5436 5439 5442 5447 5452 5454 5463 5466 5471 5477 5481 5484 5487 5489 5491 5491 5487 5490 5493 5494 5489 5491 5491 5491 5488 5480 5478 5472 5473 5464 5463 5464 5454 5445 5439 5434 5435 5434 5428 5424 5432
5403 5407 5409 5413 5415 5419 5422 5423 5427 5438 5444 5450 5454 5459 5463 5469 5470 5469 5471 5473 5472 5476 5478 5480 5481 5480 5482 5478 5470 5463 5455 5451 5443 5445 5441 5434 5431 5424 5423 5424 5422 5418 5417
5374 5378 5382 5384 5387 5389 5394 5399 5404 5412 5420 5427 5430 5436 5443 5448 5451 5451 5448 5453 5454 5460 5468 5468 5467 5468 5467 5470 5464 5459 5455 5446 5434 5433 5432 5428 5426 5419 5415 5412 5410 5406 5409
5343 5348 5350 5351 5356 5362 5367 5372 5380 5386 5395 5402 5409 5415 5422 5432 5434 5437 5436 5437 5442 5450 5455 5457 5454 5456 5450 5451 5446 5445 5441 5439 5439 5432 5431 5430 5417 5413 5406 5397 5397 5396 5391
5311 5316 5320 5322 5326 5330 5335 5338 5349 5355 5364 5376 5383 5392 5401 5409 5406 5411 5415 5420 5425 5433 5444 5444 5444 5443 5441 5437 5428 5425 5428 5423 5422 5416 5421 5418 5407 5398 5394 5390 5383 5379 5373
5284 5284 5288 5288 5290 5293 5299 5309 5320 5325 5338 5347 5360 5370 5379 5391 5386 5389 5392 5401 5411 5421 5427 5428 5430 5432 5430 5421 5417 5413 5413 5412 5406 5396 5397 5400 5386 5380 5379 5372 5363 5358 5352
5263 5262 5259 5256 5254 5258 5263 5271 5280 5287 5305 5320 5332 5342 5351 5364 5368 5371 5374 5382 5393 5407 5409 5409 5414 5420 5413 5409 5403 5397 5398 5402 5392 5383 5376 5377 5372 5363 5359 5356 5349 5343 5337
5236 5235 5235 5234 5233 5233 5235 5243 5247 5255 5264 5281 5296 5312 5320 5334 5348 5350 5358 5363 5373 5381 5393 5398 5396 5397 5394 5394 5386 5383 5393 5384 5375 5372 5362 5357 5357 5352 5346 5338 5333 5327 5320
5210 5210 5209 5208 5207 5209 5210 5217 5218 5222 5233 5251 5262 5284 5298 5312 5321 5330 5341 5350 5353 5361 5374 5381 5381 5381 5372 5376 5373 5367 5366 5363 5358 5357 5355 5345 5344 5337 5326 5322 5312 5309 5304
5182 5181 5177 5175 5178 5181 5182 5190 5194 5199 5206 5224 5237 5257 5280 5288 5298 5308 5317 5327 5331 5339 5356 5368 5367 5363 5357 5359 5359 5359 5347 5347 5347 5346 5346 5336 5332 5319 5310 5302 5292 5288 5282
5152 5154 5152 5149 5153 5153 5156 5162 5168 5178 5185 5194 5210 5232 5251 5262 5277 5286 5290 5295 5307 5318 5340 5347 5347 5341 5341 5343 5344 5348 5343 5340 5340 5336 5323 5317 5307 5299 5298 5282 5276 5267 5260
5122 5123 5122 5122 5124 5129 5132 5137 5143 5153 5157 5167 5183 5196 5217 5242 5258 5260 5269 5277 5286 5298 5304 5317 5324 5324 5327 5327 5339 5337 5323 5329 5322 5312 5304 5296 5287 5286 5275 5264 5257 5248 5242
5098 5098 5099 5100 5104 5108 5114 5123 5124 5131 5141 5150 5165 5174 5199 5220 5234 5242 5252 5261 5267 5277 5281 5297 5304 5309 5318 5316 5319 5324 5313 5310 5303 5294 5285 5282 5273 5264 5255 5247 5239 5230 5225
5082 5084 5086 5086 5088 5091 5095 5102 5114 5118 5121 5135 5147 5162 5180 5206 5216 5230 5241 5249 5252 5259 5276 5284 5292 5296 5300 5302 5297 5306 5301 5286 5282 5275 5269 5263 5256 5246 5237 5230 5220 5213 5209
5075 5076 5078 5078 5076 5075 5077 5083 5090 5099 5111 5120 5128 5142 5166 5189 5205 5216 5228 5232 5241 5253 5272 5272 5277 5278 5282 5281 5273 5269 5269 5264 5258 5252 5247 5242 5237 5229 5219 5210 5203 5198 5192
5074 5077 5075 5071 5069 5069 5070 5074 5081 5089 5098 5109 5118 5133 5152 5171 5189 5202 5213 5226 5234 5245 5260 5261 5265 5267 5264 5255 5248 5243 5243 5244 5238 5228 5225 5223 5218 5211 5200 5190 5185 5180 5176
5077 5077 5073 5072 5072 5072 5074 5077 5082 5090 5097 5106 5117 5131 5145 5166 5178 5190 5210 5217 5221 5231 5243 5250 5250 5246 5238 5233 5228 5223 5222 5220 5215 5210 5205 5201 5194 5189 5183 5175 5170 5166 5162
5081 5082 5080 5080 5083 5085 5088 5090 5094 5096 5102 5110 5121 5134 5150 5161 5172 5184 5198 5206 5209 5216 5222 5226 5226 5218 5214 5209 5205 5206 5203 5203 5196 5192 5187 5180 5175 5168 5165 5157 5155 5149 5142
5087 5089 5089 5091 5095 5099 5105 5111 5115 5115 5115 5119 5129 5142 5150 5158 5168 5178 5179 5183 5186 5190 5194 5198 5195 5191 5192 5191 5191 5189 5184 5182 5178 5172 5165 5159 5154 5150 5143 5139 5136 5134 5129
5088 5089 5091 5095 5098 5103 5111 5116 5121 5127 5130 5133 5133 5136 5140 5143 5146 5151 5154 5158 5162 5166 5167 5170 5168 5169 5169 5170 5169 5170 5168 5164 5160 5155 5149 5142 5137 5132 5127 5125 5120 5116 5115
5086 5088 5090 5093 5096 5100 5105 5109 5112 5114 5117 5118 5119 5120 5122 5125 5127 5130 5135 5137 5141 5144 5146 5150 5148 5149 5148 5146 5146 5147 5145 5142 5139 5135 5130 5125 5122 5120 5110 5108 5106 5105 5104
5087 5088 5089 5088 5090 5092 5097 5100 5103 5106 5108 5110 5111 5113 5114 5116 5118 5120 5123 5125 5127 5128 5127 5128 5128 5128 5128 5127 5125 5123 5124 5122 5118 5116 5112 5109 5108 5101 5100 5098 5096 5091 5088
5083 5084 5085 5087 5088 5088 5087 5089 5091 5094 5097 5098 5099 5101 5103 5106 5108 5111 5112 5113 5113 5113 5112 5110 5109 5109 5110 5109 5108 5106 5106 5106 5102 5098 5096 5094 5092 5093 5090 5083 5079 5078 5080